Weather History for Lihue, HI

Change the Weather History Date:

Tuesday, May 12, 2009

  Actual Average Record
Temperature  
Mean Temperature 76 °F 75 °F  
Max Temperature 81 °F 81 °F 86 °F (1981)
Min Temperature 70 °F 70 °F 62 °F (1954)
Degree Days  
Heating Degree Days 0 0  
Month to date heating degree days 0 0  
Since 1 July heating degree days 2 0  
Cooling Degree Days 11 10  
Month to date cooling degree days 121 120  
Year to date cooling degree days 739 1024  
Growing Degree Days 24 (Base 50)    
Moisture  
Dew Point 66 °F    
Average Humidity 73    
Maximum Humidity 84    
Minimum Humidity 62    
Precipitation  
Precipitation 0.00 in 0.07 in 1.84 in (2002)
Month to date precipitation T 0.93  
Year to date precipitation 8.11 14.70  
Snow  
Snow 0.00 in - - ()
Month to date snowfall 0.0  
Since 1 July snowfall 0.0  
Snow Depth 0.00 in    
Sea Level Pressure  
Sea Level Pressure 30.00 in    
Wind  
Wind Speed 10 mph (East)    
Max Wind Speed 14 mph    
Max Gust Speed 16 mph    
Visibility 10 miles    
Events      
T = Trace of Precipitation, MM = Missing Value Source: NWS Daily Summary

Daily Weather History Graph

Daily Weather History Graph

Search for Another Location

Airport:

Trip Planner

Search our weather history database for the weather conditions in past years. The results will help you decide how hot, cold, wet, or windy it might be!

Date:

Astronomy

May. 12, 2009 Rise Set
Actual Time 5:59 AM HST 7:08 PM HST
Civil Twilight 5:35 AM HST 7:32 PM HST
Nautical Twilight 5:06 AM HST 8:00 PM HST
Astronomical Twilight 4:37 AM HST 8:29 PM HST
Moon 10:38 PM HST (5/12) 8:41 AM HST (5/12)
Length of Visible Light 13h 57m
Length of Day
13h 09m
Waning Gibbous, 87% of the Moon is Illuminated
May 12
Waning Gibbous
May 16
Last Quarter
May 24
New
May 30
First Quarter
Jun 7
Full

Hourly Weather History & Observations

Time (HST) Temp. Heat Index Dew Point Humidity Pressure Visibility Wind Dir Wind Speed Gust Speed Precip Events Conditions
12:53 AM 73.0 °F - 66.0 °F 79% 30.01 in 10.0 mi East 8.1 mph - N/A   Clear
1:42 AM 73.4 °F - 66.2 °F 78% 30.00 in 10.0 mi East 9.2 mph - N/A   Mostly Cloudy
1:53 AM 73.0 °F - 66.0 °F 79% 29.99 in 10.0 mi East 9.2 mph - N/A   Mostly Cloudy
2:11 AM 73.4 °F - 66.2 °F 78% 29.99 in 10.0 mi East 10.4 mph - N/A   Scattered Clouds
2:53 AM 73.0 °F - 66.9 °F 81% 29.97 in 10.0 mi East 4.6 mph - N/A   Scattered Clouds
3:10 AM 73.4 °F - 66.2 °F 78% 29.98 in 10.0 mi East 4.6 mph - N/A   Mostly Cloudy
3:53 AM 70.0 °F - 64.9 °F 84% 29.97 in 10.0 mi West 5.8 mph - N/A   Overcast
4:06 AM 69.8 °F - 64.4 °F 83% 29.98 in 10.0 mi West 5.8 mph - N/A   Overcast
4:37 AM 71.6 °F - 64.4 °F 78% 29.98 in 10.0 mi West 5.8 mph - N/A   Overcast
4:53 AM 71.1 °F - 64.9 °F 81% 29.98 in 10.0 mi West 5.8 mph - N/A   Mostly Cloudy
5:53 AM 73.0 °F - 66.0 °F 79% 29.99 in 10.0 mi East 8.1 mph - N/A   Overcast
6:24 AM 71.6 °F - 66.2 °F 83% 30.00 in 10.0 mi Variable 5.8 mph - N/A   Mostly Cloudy
6:39 AM 73.4 °F - 66.2 °F 78% 30.00 in 10.0 mi East 10.4 mph - N/A   Scattered Clouds
6:53 AM 73.9 °F - 66.0 °F 76% 30.01 in 10.0 mi East 10.4 mph - N/A   Partly Cloudy
7:53 AM 75.9 °F - 66.0 °F 71% 30.02 in 10.0 mi East 11.5 mph - N/A   Clear
8:53 AM 77.0 °F - 66.9 °F 71% 30.03 in 10.0 mi East 11.5 mph - N/A   Mostly Cloudy
9:53 AM 78.1 °F - 66.0 °F 66% 30.03 in 10.0 mi East 11.5 mph - N/A   Clear
10:53 AM 79.0 °F - 66.0 °F 64% 30.03 in 10.0 mi East 12.7 mph - N/A   Clear
11:53 AM 80.1 °F 82.1 °F 66.0 °F 62% 30.02 in 10.0 mi East 10.4 mph - N/A   Clear
12:53 PM 80.1 °F 82.1 °F 66.0 °F 62% 30.00 in 10.0 mi East 10.4 mph - N/A   Clear
1:53 PM 79.0 °F - 66.0 °F 64% 29.98 in 10.0 mi East 11.5 mph - N/A   Clear
2:53 PM 79.0 °F - 64.9 °F 62% 29.97 in 10.0 mi ENE 10.4 mph - N/A   Clear
3:53 PM 79.0 °F - 66.0 °F 64% 29.96 in 10.0 mi ENE 11.5 mph - N/A   Clear
4:53 PM 77.0 °F - 64.9 °F 66% 29.96 in 10.0 mi ENE 11.5 mph - N/A   Partly Cloudy
5:53 PM 75.9 °F - 64.9 °F 69% 29.97 in 10.0 mi ENE 11.5 mph - N/A   Partly Cloudy
6:53 PM 75.0 °F - 64.9 °F 71% 29.98 in 10.0 mi ENE 10.4 mph - N/A   Mostly Cloudy
7:53 PM 73.9 °F - 64.9 °F 73% 30.00 in 10.0 mi East 8.1 mph - N/A   Scattered Clouds
8:53 PM 73.9 °F - 64.9 °F 73% 30.01 in 10.0 mi East 6.9 mph - N/A   Partly Cloudy
9:53 PM 73.9 °F - 64.9 °F 73% 30.03 in 10.0 mi East 10.4 mph - N/A   Scattered Clouds
10:53 PM 73.0 °F - 64.9 °F 76% 30.04 in 10.0 mi East 9.2 mph - N/A   Scattered Clouds
11:53 PM 73.0 °F - 64.9 °F 76% 30.03 in 10.0 mi East 10.4 mph - N/A   Partly Cloudy